Flag for United Kingdom Weather past 2 weeks in Edinburgh, Scotland, United Kingdom

Now
54 °F

Passing clouds.


Feels Like: 52 °F
Forecast: 51 / 63 °F
Wind: 6 mph from West

Location: Edinburgh Airport

Current Time: Jul 6, 2015 at 12:55:36 AM

Latest Report: Jul 6, 2015 at 12:20 AM


Visibility: N/A

Pressure: 29.92 "Hg

Humidity: 94%

Dew point: 52 °F

Location of EdinburghLocation

Historic Weather in Edinburgh — Graph

°F

Edinburgh temperature yesterday

Maximum temperature yesterday: 66 °F (at 10:20 AM)
Minimum temperature yesterday: 46 °F (at 4:50 AM)
Average temperature yesterday: 58 °F

Past Weeks' High & Low Weather Summary

 TemperatureHumidityPressure
High77 °F (Jun 30, 4:50 PM)100% (Jun 22, 6:20 AM)30.27 "Hg (Jun 22, 6:20 AM)
Low37 °F (Jun 24, 4:20 AM)56% (Jun 27, 12:50 PM)29.77 "Hg (Jun 22, 1:20 AM)
Average58 °F82%29.97 "Hg
* Reported Jun 20 11:20 PM — Jul 5 11:50 PM, Edinburgh, Weather by CustomWeather, © 2015

Note: Actual official high and low records may vary slightly from our data, if they occured in-between our weather recording intervals... More about our weather records

Advertising

Edinburgh weather history for previous 24 hours

 ConditionsComfort  
Time TempWeatherWind HumidityBarometerVisibility
11:50 PM
Sun, Jul 5
54 °FPassing clouds.7 mph94%29.92 "HgN/A
11:20 PM54 °FPassing clouds.3 mph94%29.89 "HgN/A
10:50 PM52 °FFog.3 mph100%29.89 "HgN/A
10:20 PM54 °FPassing clouds.5 mph94%29.89 "HgN/A
9:50 PM55 °FLight rain. Clear.5 mph94%29.89 "HgN/A
9:20 PM55 °FLight rain. Passing clouds.5 mph94%29.89 "HgN/A
8:50 PM57 °FPassing clouds.5 mph88%29.89 "HgN/A
8:20 PM55 °FSprinkles. Scattered clouds.2 mph94%29.89 "HgN/A
7:50 PM55 °FSprinkles. Scattered clouds.2 mph94%29.89 "HgN/A
7:20 PM59 °FRain showers. Scattered clouds.8 mph82%29.89 "Hg2 mi
6:50 PM61 °FMixture of precip. Scattered clouds.6 mph77%29.89 "HgN/A
6:20 PM61 °FScattered showers. Scattered clouds.5 mph83%29.89 "HgN/A
5:50 PM59 °FSprinkles. Scattered clouds.6 mph88%29.89 "HgN/A
5:20 PM61 °FRain showers. Scattered clouds.2 mph72%29.89 "HgN/A
4:50 PM63 °FScattered showers. Scattered clouds.7 mph73%29.89 "HgN/A
4:20 PM63 °FSprinkles. Scattered clouds.6 mph73%29.92 "HgN/A
3:50 PM63 °FScattered showers. Scattered clouds.8 mph68%29.92 "HgN/A
3:20 PM63 °FScattered clouds.8 mph73%29.92 "HgN/A
2:50 PM63 °FScattered clouds.5 mph73%29.95 "HgN/A
2:20 PM61 °FBroken clouds.3 mph77%29.95 "HgN/A
1:50 PM61 °FSprinkles. Scattered clouds.10 mph72%29.95 "HgN/A
1:20 PM64 °FScattered showers. Scattered clouds.5 mph60%29.95 "HgN/A
12:50 PM64 °FPassing clouds.6 mph60%29.98 "HgN/A
12:20 PM66 °FScattered clouds.10 mph56%29.98 "HgN/A
11:50 AM66 °FPassing clouds.8 mph56%29.98 "HgN/A
11:20 AM66 °FPassing clouds.6 mph56%29.98 "HgN/A
10:50 AM66 °FPassing clouds.9 mph56%30.01 "HgN/A
10:20 AM66 °FPassing clouds.9 mph56%30.01 "HgN/A
9:50 AM63 °FPassing clouds.12 mph59%30.01 "HgN/A
9:20 AM63 °FPassing clouds.12 mph64%30.01 "HgN/A
8:50 AM63 °FPassing clouds.12 mph64%30.01 "HgN/A
8:20 AM61 °FPassing clouds.8 mph72%30.01 "HgN/A
7:50 AM59 °FPassing clouds.3 mph77%30.04 "HgN/A
7:20 AM57 °FPassing clouds.2 mph88%30.04 "HgN/A
6:50 AM54 °FPassing clouds.2 mph94%30.01 "HgN/A
6:20 AM52 °FSunny.No wind94%30.01 "Hg10 mi
5:50 AM48 °FSunny.2 mph100%30.01 "Hg10 mi
5:20 AM46 °FCool.2 mph100%30.01 "Hg4 mi
4:50 AM46 °FFog.No wind93%30.01 "HgN/A
4:20 AM48 °FClear.2 mph94%30.01 "Hg10 mi
3:50 AM48 °FClear.3 mph94%30.01 "Hg10 mi
3:20 AM50 °FClear.5 mph88%30.01 "Hg10 mi
2:50 AM52 °FClear.3 mph94%30.04 "Hg10 mi
2:20 AM54 °FPassing clouds.5 mph88%30.01 "HgN/A
1:50 AM54 °FPassing clouds.5 mph88%30.01 "HgN/A
1:20 AM55 °FPassing clouds.5 mph82%30.01 "HgN/A
12:50 AM54 °FPassing clouds.6 mph88%30.01 "HgN/A
12:20 AM55 °FPassing clouds.5 mph82%30.01 "HgN/A
Weather by CustomWeather, © 2015

See weather overviewHow to use our weather pages